Flag for Germany Weather past 2 weeks in Rottenburg am Neckar, Baden-Württemberg, Germany

Now
38 °F

Overcast.


Feels Like: 38 °F
Forecast: 31 / 40 °F
Wind: 2 mph from South

Location: Stuttgart-Echterdingen

Current Time: Mar 4, 2015 at 10:09:01 AM

Latest Report: Mar 4, 2015 at 9:00 AM


Visibility: 34 mi

Pressure: 30.34 "Hg

Humidity: 76%

Dew point: 31 °F

Location of Rottenburg am NeckarLocation

Historic Weather in Rottenburg am Neckar — Graph

°F

Rottenburg am Neckar temperature yesterday

Maximum temperature yesterday: 50 °F (at 3:00 PM)
Minimum temperature yesterday: 35 °F (at 6:00 AM)
Average temperature yesterday: 42 °F

Past Weeks' High & Low Weather Summary

 TemperatureHumidityPressure
High55 °F (Feb 20, 3:00 PM)97% (Feb 20, 5:00 AM)30.78 "Hg (Feb 20, 5:00 AM)
Low24 °F (Feb 20, 5:00 AM)38% (Feb 20, 4:00 PM)29.55 "Hg (Feb 23, 5:00 PM)
Average37 °F78%30.06 "Hg
* Reported Feb 17 9:00 AM — Mar 4 9:00 AM, Rottenburg am Neckar, Weather by CustomWeather, © 2015

Note: Actual official high and low records may vary slightly from our data, if they occured in-between our weather recording intervals... More about our weather records

Advertising

Rottenburg am Neckar weather history for previous 24 hours

 ConditionsComfort  
Time TempWeatherWind HumidityBarometerVisibility
9:00 AM
Wed, Mar 4
38 °FOvercast.2 mph76%30.34 "Hg34 mi
8:00 AM35 °FOvercast.2 mph81%30.33 "Hg37 mi
7:00 AM36 °FOvercast.7 mph75%30.30 "Hg37 mi
6:00 AM37 °FOvercast.6 mph77%30.29 "Hg37 mi
5:00 AM38 °FOvercast.3 mph81%30.27 "Hg31 mi
3:00 AM38 °FOvercast.3 mph79%30.24 "Hg31 mi
2:00 AM38 °FSprinkles. Overcast.8 mph79%30.23 "Hg31 mi
1:00 AM39 °FSprinkles. Overcast.8 mph84%30.21 "Hg31 mi
12:00 AM43 °FPassing clouds.6 mph61%30.15 "Hg31 mi
11:00 PM
Tue, Mar 3
44 °FPassing clouds.3 mph59%30.14 "Hg31 mi
9:00 PM45 °FCool.5 mph56%30.14 "HgN/A
8:00 PM46 °FOvercast.5 mph55%30.14 "Hg31 mi
7:00 PM46 °FOvercast.3 mph55%30.13 "Hg31 mi
6:00 PM47 °FOvercast.3 mph50%30.12 "Hg37 mi
5:00 PM48 °FScattered clouds.7 mph43%30.12 "Hg37 mi
3:00 PM50 °FScattered clouds.6 mph46%30.14 "Hg37 mi
2:00 PM49 °FScattered clouds.6 mph51%30.17 "Hg40 mi
1:00 PM47 °FScattered clouds.6 mph50%30.20 "Hg40 mi
12:00 PM46 °FPassing clouds.3 mph54%30.23 "Hg40 mi
11:00 AM43 °FPassing clouds.5 mph60%30.25 "Hg37 mi
10:00 AM40 °FPassing clouds.5 mph65%30.26 "Hg37 mi
Weather by CustomWeather, © 2015

See weather overviewHow to use our weather pages